Minneapolis Flying Cloud, MN

8:00 PM CDT on April 29, 2017 (GMT -0500)
Flying Cloud

Weather History for KFCM - May, 2012

Change the Weather History Date:

Wednesday, May 9, 2012

  Actual Average Record
Temperature  
Mean Temperature 56 °F -  
Max Temperature 66 °F 66 °F 91 °F (2004)
Min Temperature 48 °F 45 °F 39 °F (1999)
Degree Days  
Heating Degree Days 9    
Growing Degree Days 6 (Base 50)    
Moisture  
Dew Point 41 °F    
Average Humidity 62    
Maximum Humidity 89    
Minimum Humidity 34    
Precipitation  
Precipitation 0.00 in - - ()
Sea Level Pressure  
Sea Level Pressure 30.01 in    
Wind  
Wind Speed 5 mph (North)    
Max Wind Speed 8 mph    
Max Gust Speed -    
Visibility 10 miles    
Events      
Averages and records for this station are not official NWS values.
T = Trace of Precipitation, MM = Missing Value Source: NWS Daily Summary

Daily Weather History Graph

Daily Weather History Graph

Search for Another Location

Airport or City:

Trip Planner

Search our weather history database for the weather conditions in past years. The results will help you decide how hot, cold, wet, or windy it might be!

Date:

Astronomy

May. 09, 2012 Rise Set
Actual Time 5:51 AM CDT 8:29 PM CDT
Civil Twilight 5:18 AM CDT 9:02 PM CDT
Nautical Twilight 4:36 AM CDT 9:44 PM CDT
Astronomical Twilight 3:48 AM CDT 10:33 PM CDT
Moon No Moon Rise 9:05 AM CDT (5/9)
Length of Visible Light 15h 44m
Length of Day
14h 37m
Waning Gibbous, 82% of the Moon is Illuminated
May 9
Waning Gibbous
May 12
Last Quarter
May 20
New
May 28
First Quarter
Jun 4
Full

Hourly Weather History & Observations

Time (CDT) Temp. Dew Point Humidity Pressure Visibility Wind Dir Wind Speed Gust Speed Precip Events Conditions
12:53 AM 50.0 °F 46.9 °F 89% 29.98 in 10.0 mi North 8.1 mph - N/A   Clear
1:53 AM 48.9 °F 45.0 °F 86% 29.98 in 10.0 mi North 6.9 mph - N/A   Clear
2:53 AM 48.9 °F 45.0 °F 86% 29.99 in 10.0 mi North 6.9 mph - N/A   Overcast
3:53 AM 48.9 °F 45.0 °F 86% 30.01 in 10.0 mi North 5.8 mph - N/A   Overcast
4:21 AM 48.2 °F 44.6 °F 87% 30.01 in 10.0 mi North 5.8 mph - N/A   Overcast
4:39 AM 48.2 °F 44.6 °F 87% 30.01 in 10.0 mi North 5.8 mph - N/A   Overcast
4:53 AM 48.9 °F 45.0 °F 86% 30.02 in 10.0 mi North 4.6 mph - N/A   Overcast
5:53 AM 48.0 °F 45.0 °F 89% 30.04 in 10.0 mi North 4.6 mph - N/A   Overcast
6:53 AM 48.9 °F 45.0 °F 86% 30.04 in 10.0 mi North 4.6 mph - N/A   Clear
7:53 AM 52.0 °F 46.0 °F 80% 30.06 in 10.0 mi North 6.9 mph - N/A   Clear
8:53 AM 53.1 °F 43.0 °F 69% 30.07 in 10.0 mi North 8.1 mph - N/A   Partly Cloudy
9:53 AM 55.0 °F 42.1 °F 62% 30.07 in 10.0 mi North 4.6 mph - N/A   Clear
10:53 AM 59.0 °F 41.0 °F 51% 30.08 in 10.0 mi NE 5.8 mph - N/A   Partly Cloudy
11:53 AM 60.1 °F 37.9 °F 44% 30.06 in 10.0 mi East 6.9 mph - N/A   Scattered Clouds
12:53 PM 60.1 °F 36.0 °F 41% 30.04 in 10.0 mi Calm Calm - N/A   Mostly Cloudy
1:53 PM 63.0 °F 37.0 °F 38% 30.03 in 10.0 mi West 4.6 mph - N/A   Mostly Cloudy
2:53 PM 63.0 °F 36.0 °F 37% 30.00 in 10.0 mi Calm Calm - N/A   Partly Cloudy
3:53 PM 63.0 °F 36.0 °F 37% 29.99 in 10.0 mi WNW 3.5 mph - N/A   Mostly Cloudy
4:53 PM 64.9 °F 36.0 °F 34% 29.98 in 10.0 mi North 5.8 mph - N/A   Clear
5:53 PM 62.1 °F 35.1 °F 37% 29.97 in 8.0 mi Calm Calm - N/A   Clear
6:53 PM 63.0 °F 36.0 °F 37% 29.96 in 10.0 mi Calm Calm - N/A   Partly Cloudy
7:53 PM 61.0 °F 37.9 °F 42% 29.95 in 10.0 mi West 3.5 mph - N/A   Clear
8:53 PM 60.1 °F 36.0 °F 41% 29.96 in 10.0 mi Calm Calm - N/A   Clear
9:53 PM 55.9 °F 39.9 °F 55% 29.96 in 10.0 mi Calm Calm - N/A   Clear
10:53 PM 55.9 °F 42.1 °F 60% 29.96 in 10.0 mi Calm Calm - N/A   Clear
11:53 PM 53.1 °F 41.0 °F 64% 29.96 in 10.0 mi Calm Calm - N/A   Clear